EW9877 Weather Reports


time (UTC)temp
C
wind
direction
speed
KPH
gust
KPH
rain 1hr
cm
rain 24hr
cm
rain mn
cm
humidity
%
barometer
mb
20260508130516 10 159 0.0 0.0 0.00 0.00 0.00 87 1017.8
20260508125516 10 222 0.0 0.0 0.00 0.00 0.00 87 1017.7
20260508124516 10 158 0.0 0.0 0.00 0.00 0.00 87 1017.6
20260508123536 10 203 0.0 3.2 0.00 0.00 0.00 88 1017.6
20260508122516 10 103 0.0 0.0 0.00 0.00 0.00 89 1017.5
20260508121516 10 216 0.0 0.0 0.00 0.00 0.00 89 1017.4
20260508120516 11 157 0.0 0.0 0.00 0.00 0.00 90 1017.4
20260508115516 11 204 0.0 0.0 0.00 0.00 0.00 91 1017.3
20260508114516 11 229 0.0 0.0 0.00 0.00 0.00 91 1017.3
20260508113536 11 145 0.0 0.0 0.00 0.00 0.00 92 1017.1
20260508112515 10 210 0.0 0.0 0.00 0.00 0.00 92 1017.1
20260508111515 10 196 0.0 0.0 0.00 0.00 0.00 91 1016.9
20260508110515 10 199 0.0 0.0 0.00 0.00 0.00 91 1016.9
20260508105516 10 180 0.0 0.0 0.00 0.00 0.00 91 1016.9
20260508104516 10 175 0.0 0.0 0.00 0.00 0.00 92 1016.8
20260508103515 10 173 0.0 0.0 0.00 0.00 0.00 92 1016.7
20260508102536 10 175 0.0 0.0 0.00 0.00 0.00 92 1016.8
20260508101516 10 174 0.0 0.0 0.00 0.00 0.00 92 1016.6
20260508100516 10 74 0.0 0.0 0.00 0.00 0.00 91 1016.6
20260508095535 10 74 0.0 0.0 0.00 0.00 0.00 91 1016.6
20260508094515 10 74 0.0 0.0 0.00 0.00 0.00 91 1016.6
20260508093516 10 74 0.0 0.0 0.00 0.00 0.00 91 1016.5
20260508092515 11 74 0.0 0.0 0.00 0.00 0.00 90 1016.6
20260508091515 11 73 0.0 0.0 0.00 0.00 0.00 90 1016.6
20260508090516 11 73 0.0 0.0 0.00 0.00 0.00 90 1016.5
20260508085515 11 73 0.0 0.0 0.00 0.00 0.00 90 1016.6
20260508084515 11 73 0.0 0.0 0.00 0.00 0.00 89 1016.6
20260508083535 11 73 0.0 0.0 0.00 0.00 0.00 89 1016.5
20260508082515 11 73 0.0 0.0 0.00 0.00 0.00 88 1016.7
20260508081515 11 73 0.0 0.0 0.00 0.00 0.00 88 1016.6
20260508080515 11 73 0.0 0.0 0.00 0.00 0.00 88 1016.5
20260508075515 12 73 0.0 0.0 0.00 0.00 0.00 88 1016.6
20260508074535 12 73 0.0 0.0 0.00 0.00 0.00 88 1016.6
20260508073535 12 73 0.0 0.0 0.00 0.00 0.00 88 1016.6
20260508072515 12 73 0.0 0.0 0.00 0.00 0.00 88 1016.7
20260508071517 12 73 0.0 0.0 0.00 0.00 0.00 88 1016.7
20260508070517 12 73 0.0 0.0 0.00 0.00 0.00 87 1016.7
20260508065517 12 113 0.0 0.0 0.00 0.00 0.00 87 1016.7
20260508064517 12 113 0.0 0.0 0.00 0.00 0.00 85 1016.7
20260508063517 12 113 0.0 0.0 0.00 0.00 0.00 84 1016.7
20260508062517 12 113 0.0 0.0 0.00 0.00 0.00 84 1016.7
20260508061517 12 113 0.0 0.0 0.00 0.00 0.00 83 1016.8
20260508060517 12 113 0.0 0.0 0.00 0.00 0.00 84 1016.9
20260508055517 12 116 0.0 0.0 0.00 0.00 0.00 84 1016.9
20260508054537 12 116 0.0 0.0 0.00 0.00 0.00 82 1016.8
20260508053537 12 116 0.0 0.0 0.00 0.00 0.00 82 1016.9
20260508052517 13 116 0.0 0.0 0.00 0.00 0.00 82 1016.8
20260508051517 13 116 0.0 0.0 0.00 0.00 0.00 81 1016.8
20260508050517 13 116 0.0 0.0 0.00 0.00 0.00 80 1016.9
20260508045517 13 116 0.0 0.0 0.00 0.00 0.00 80 1016.9
20260508044517 13 116 0.0 0.0 0.00 0.00 0.00 79 1016.9
20260508043517 13 117 0.0 0.0 0.00 0.00 0.00 78 1017.0
20260508042517 14 117 0.0 0.0 0.00 0.00 0.00 75 1017.0
20260508041537 14 117 0.0 0.0 0.00 0.00 0.00 74 1017.0
20260508040517 15 117 0.0 0.0 0.00 0.00 0.00 74 1017.1
20260508035517 15 117 0.0 0.0 0.00 0.00 0.00 72 1016.9
20260508034517 16 117 0.0 0.0 0.00 0.00 0.00 71 1016.9
20260508033517 16 117 0.0 0.0 0.00 0.00 0.00 70 1016.9
20260508032537 16 117 0.0 0.0 0.00 0.00 0.00 68 1017.0
20260508031536 16 117 0.0 0.0 0.00 0.00 0.00 67 1016.9
20260508030516 16 117 0.0 0.0 0.00 0.00 0.00 64 1016.9
20260508025516 17 117 0.0 0.0 0.00 0.00 0.00 63 1017.1
20260508024516 17 117 0.0 0.0 0.00 0.00 0.00 63 1017.1
20260508023517 17 117 0.0 0.0 0.00 0.00 0.00 64 1017.0
20260508022516 17 117 0.0 0.0 0.00 0.00 0.00 63 1017.1
20260508021517 17 117 0.0 0.0 0.00 0.00 0.00 62 1017.2
20260508020517 18 118 0.0 0.0 0.00 0.00 0.00 62 1017.3
20260508015516 18 12 0.0 0.0 0.00 0.00 0.00 61 1017.3
20260508014517 18 13 0.0 0.0 0.00 0.00 0.00 61 1017.3
20260508013516 18 11 0.0 0.0 0.00 0.00 0.00 60 1017.3
20260508012517 18 98 0.0 0.0 0.00 0.00 0.00 58 1017.4
20260508011516 19 84 0.0 0.0 0.00 0.00 0.00 58 1017.6
20260508010536 19 185 0.0 0.0 0.00 0.00 0.00 59 1017.7
20260508005517 19 179 0.0 0.0 0.00 0.00 0.00 59 1017.7
20260508004516 18 237 0.0 0.0 0.00 0.00 0.00 60 1017.8
20260508003536 18 288 0.0 0.0 0.00 0.00 0.00 60 1017.9
20260508002516 18 260 0.0 0.0 0.00 0.00 0.00 62 1017.9
20260508001516 18 355 0.0 0.0 0.00 0.00 0.00 60 1017.9
20260508000516 18 217 0.0 0.0 0.00 0.00 0.00 59 1017.9
20260507235515 18 229 0.0 0.0 0.00 0.00 0.00 60 1018.1
20260507234517 18 267 0.0 0.0 0.00 0.00 0.00 61 1018.1
20260507233537 18 126 0.0 0.0 0.00 0.00 0.00 63 1018.0
20260507232537 17 27 0.0 0.0 0.00 0.00 0.00 65 1018.1
20260507231517 17 28 0.0 0.0 0.00 0.00 0.00 64 1018.2
20260507230537 17 86 0.0 0.0 0.00 0.00 0.00 63 1018.4
20260507225517 18 96 0.0 0.0 0.00 0.00 0.00 63 1018.5
20260507224517 17 302 0.0 0.0 0.00 0.00 0.00 63 1018.7
20260507223517 17 64 0.0 0.0 0.00 0.00 0.00 64 1018.7
20260507222517 17 39 0.0 0.0 0.00 0.00 0.00 65 1018.7
20260507221517 17 336 0.0 0.0 0.00 0.00 0.00 64 1018.8
20260507220515 17 304 0.0 0.0 0.00 0.00 0.00 64 1018.9
20260507215517 17 317 0.0 0.0 0.00 0.00 0.00 65 1019.0
20260507214517 17 5 0.0 0.0 0.00 0.00 0.00 63 1019.1
20260507213517 17 100 0.0 0.0 0.00 0.00 0.00 63 1019.2
20260507212537 17 151 0.0 0.0 0.00 0.00 0.00 63 1019.2
20260507211517 17 80 0.0 0.0 0.00 0.00 0.00 62 1019.4
20260507210517 17 132 0.0 0.0 0.00 0.00 0.00 63 1019.6
20260507205516 17 138 0.0 0.0 0.00 0.00 0.00 64 1019.7
20260507204517 17 104 0.0 0.0 0.00 0.00 0.00 66 1019.7
20260507203536 16 161 0.0 0.0 0.00 0.00 0.00 66 1019.9
20260507202517 16 73 0.0 0.0 0.00 0.00 0.00 65 1019.9
20260507201517 16 98 0.0 0.0 0.00 0.00 0.00 66 1020.0
20260507200516 16 19 0.0 0.0 0.00 0.00 0.00 66 1020.0
20260507195517 16 158 0.0 0.0 0.00 0.00 0.00 67 1020.1
20260507194517 16 93 0.0 0.0 0.00 0.00 0.00 67 1020.2
20260507193516 16 149 0.0 0.0 0.00 0.00 0.00 68 1020.3
20260507192516 16 83 0.0 0.0 0.00 0.00 0.00 68 1020.3
20260507191516 16 131 0.0 0.0 0.00 0.00 0.00 70 1020.4
20260507190537 16 79 0.0 0.0 0.00 0.00 0.00 69 1020.4
20260507185516 16 73 0.0 0.0 0.00 0.00 0.00 69 1020.4
20260507184516 16 117 0.0 0.0 0.00 0.00 0.00 70 1020.5
20260507183517 15 144 0.0 0.0 0.00 0.00 0.00 72 1020.6
20260507182517 15 149 0.0 0.0 0.00 0.00 0.00 72 1020.6
20260507181537 15 158 0.0 0.0 0.00 0.00 0.00 72 1020.6
20260507180516 15 130 0.0 0.0 0.00 0.00 0.00 73 1020.7
20260507175516 15 142 0.0 0.0 0.00 0.00 0.00 72 1020.7
20260507174517 15 162 0.0 0.0 0.00 0.00 0.00 73 1020.8
20260507173516 15 116 0.0 0.0 0.00 0.00 0.00 74 1020.8
20260507172516 15 167 0.0 0.0 0.00 0.00 0.00 74 1020.8
20260507171516 15 158 0.0 1.6 0.00 0.00 0.00 75 1020.8
20260507170516 14 128 0.0 0.0 0.00 0.00 0.00 75 1020.7
20260507165517 13 302 0.0 0.0 0.00 0.00 0.00 76 1020.7
20260507164517 13 247 0.0 0.0 0.00 0.00 0.00 76 1020.8
20260507163516 13 313 0.0 0.0 0.00 0.00 0.00 76 1020.7
20260507162516 13 223 0.0 0.0 0.00 0.00 0.00 76 1020.8
20260507161516 13 194 0.0 0.0 0.00 0.00 0.00 78 1020.8
20260507160556 13 235 0.0 0.0 0.00 0.00 0.00 76 1020.9
20260507155516 13 219 0.0 0.0 0.00 0.00 0.00 77 1021.0
20260507154536 14 180 0.0 0.0 0.00 0.00 0.00 77 1021.0
20260507153536 14 211 0.0 0.0 0.00 0.00 0.00 75 1021.0
20260507152536 15 113 0.0 1.6 0.00 0.00 0.00 76 1021.0
20260507151536 14 135 0.0 3.2 0.00 0.00 0.00 77 1021.0
20260507150516 14 150 0.0 0.0 0.00 0.00 0.00 77 1020.9
20260507145516 14 169 0.0 0.0 0.00 0.00 0.00 78 1020.9
20260507144516 13 151 0.0 0.0 0.00 0.00 0.00 80 1020.9
20260507143516 13 105 0.0 0.0 0.00 0.00 0.00 82 1020.9
20260507142516 12 146 0.0 0.0 0.00 0.00 0.00 85 1020.9
20260507141536 11 159 0.0 0.0 0.00 0.00 0.00 85 1020.9
20260507140536 11 173 0.0 0.0 0.00 0.00 0.00 85 1020.8
20260507135516 11 188 0.0 0.0 0.00 0.00 0.00 87 1020.7
20260507134536 11 188 0.0 0.0 0.00 0.00 0.00 87 1020.8
20260507133556 11 168 0.0 0.0 0.00 0.00 0.00 87 1020.7
20260507132516 11 242 0.0 0.0 0.00 0.00 0.00 87 1020.7
20260507131516 11 210 0.0 0.0 0.00 0.00 0.00 88 1020.7